Weather History for Summerville, SC

Change the Weather History Date:

Thursday, January 31, 2013

  Actual Average (KCHS) Record (KCHS)
Temperature  
Mean Temperature 50 °F 49 °F  
Max Temperature 55 °F 60 °F 81 °F (1975)
Min Temperature 44 °F 38 °F 15 °F (1966)
Degree Days  
Heating Degree Days 16 16  
Month to date heating degree days 520  
Since 1 July heating degree days 1259  
Cooling Degree Days 0 0  
Month to date cooling degree days 2  
Year to date cooling degree days 2  
Moisture  
Dew Point 34 °F    
Average Humidity 58    
Maximum Humidity 100    
Minimum Humidity 29    
Precipitation  
Precipitation 0.00 in 0.12 in 0.83 in (1959)
Month to date precipitation 3.71  
Year to date precipitation 3.71  
Sea Level Pressure  
Sea Level Pressure 29.94 in    
Wind  
Wind Speed 11 mph (WSW)    
Max Wind Speed 17 mph    
Max Gust Speed 26 mph    
Visibility 10 miles    
Events Rain    
T = Trace of Precipitation, MM = Missing Value Source: NWS Daily Summary

Daily Weather History Graph

Daily Weather History Graph

Search for Another Location

Airport:

Trip Planner

Search our weather history database for the weather conditions in past years. The results will help you decide how hot, cold, wet, or windy it might be!

Date:

Astronomy

Jan. 31, 2013 Rise Set
Actual Time 7:17 AM EST 5:52 PM EST
Civil Twilight 6:51 AM EST 6:18 PM EST
Nautical Twilight 6:21 AM EST 6:48 PM EST
Astronomical Twilight 5:52 AM EST 7:17 PM EST
Moon 10:33 PM EST (1/31) 9:33 AM EST (1/31)
Length of Visible Light 11h 27m
Length of Day
10h 35m
Waning Gibbous, 80% of the Moon is Illuminated
Jan 31
Waning Gibbous
Feb 3
Last Quarter
Feb 10
New
Feb 17
First Quarter
Feb 25
Full

Hourly Weather History & Observations

Time (EST) Temp. Windchill Dew Point Humidity Pressure Visibility Wind Dir Wind Speed Gust Speed Precip Events Conditions
12:15 AM 55.4 °F - 55.4 °F 100% 29.76 in 4.0 mi West 11.5 mph 16.1 mph N/A Rain Rain
12:35 AM 53.6 °F - 53.6 °F 100% 29.75 in 5.0 mi West 6.9 mph - N/A Rain Heavy Rain
12:55 AM 53.6 °F - 53.6 °F 100% 29.74 in 5.0 mi West 6.9 mph - N/A Rain Rain
1:15 AM 53.6 °F - 53.6 °F 100% 29.75 in 10.0 mi West 6.9 mph - N/A Rain Light Rain
1:35 AM 53.6 °F - 51.8 °F 94% 29.76 in 10.0 mi SSW 4.6 mph - N/A   Overcast
2:35 AM 53.6 °F - 51.8 °F 94% 29.78 in 10.0 mi SW 6.9 mph - N/A   Overcast
3:15 AM 51.8 °F - 51.8 °F 100% 29.78 in 10.0 mi SW 6.9 mph - N/A   Overcast
3:35 AM 51.8 °F - 50.0 °F 94% 29.80 in 10.0 mi WSW 8.1 mph 17.3 mph N/A   Mostly Cloudy
3:55 AM 51.8 °F - 46.4 °F 82% 29.81 in 10.0 mi SW 11.5 mph 23.0 mph N/A   Scattered Clouds
4:15 AM 51.8 °F - 44.6 °F 76% 29.82 in 10.0 mi SW 8.1 mph 18.4 mph N/A   Mostly Cloudy
4:35 AM 51.8 °F - 44.6 °F 76% 29.83 in 10.0 mi WSW 10.4 mph 18.4 mph N/A   Mostly Cloudy
4:55 AM 51.8 °F - 42.8 °F 71% 29.85 in 10.0 mi West 13.8 mph 23.0 mph N/A   Overcast
5:15 AM 50.0 °F - 37.4 °F 62% 29.86 in 10.0 mi West 15.0 mph 26.5 mph N/A   Scattered Clouds
5:35 AM 46.4 °F 40.4 °F 33.8 °F 62% 29.88 in 10.0 mi West 13.8 mph 26.5 mph N/A   Clear
5:55 AM 46.4 °F 40.7 °F 33.8 °F 62% 29.88 in 10.0 mi WSW 12.7 mph 18.4 mph N/A   Clear
6:15 AM 44.6 °F 38.4 °F 33.8 °F 66% 29.90 in 10.0 mi WSW 12.7 mph 17.3 mph N/A   Clear
6:35 AM 44.6 °F 38.4 °F 32.0 °F 61% 29.92 in 10.0 mi West 12.7 mph 21.9 mph N/A   Clear
6:55 AM 44.6 °F 38.8 °F 32.0 °F 61% 29.93 in 10.0 mi West 11.5 mph 21.9 mph N/A   Clear
7:15 AM 44.6 °F 37.8 °F 32.0 °F 61% 29.95 in 10.0 mi West 15.0 mph 26.5 mph N/A   Clear
7:35 AM 44.6 °F 39.7 °F 32.0 °F 61% 29.95 in 10.0 mi WSW 9.2 mph 16.1 mph N/A   Clear
7:55 AM 44.6 °F 38.4 °F 33.8 °F 66% 29.95 in 10.0 mi West 12.7 mph - N/A   Clear
8:15 AM 44.6 °F 37.8 °F 33.8 °F 66% 29.98 in 10.0 mi WSW 15.0 mph 20.7 mph N/A   Clear
8:55 AM 44.6 °F 37.4 °F 30.2 °F 57% 30.02 in 10.0 mi West 16.1 mph 26.5 mph N/A   Clear
9:15 AM 44.6 °F 38.4 °F 30.2 °F 57% 30.02 in 10.0 mi West 12.7 mph 26.5 mph N/A   Clear
9:35 AM 44.6 °F 37.8 °F 30.2 °F 57% 30.02 in 10.0 mi WNW 15.0 mph 24.2 mph N/A   Clear
9:55 AM 46.4 °F 39.8 °F 28.4 °F 50% 30.02 in 10.0 mi West 16.1 mph 23.0 mph N/A   Clear
10:15 AM 46.4 °F 41.1 °F 30.2 °F 53% 30.03 in 10.0 mi West 11.5 mph 17.3 mph N/A   Clear
10:35 AM 46.4 °F 40.7 °F 28.4 °F 50% 30.03 in 10.0 mi West 12.7 mph 23.0 mph N/A   Clear
10:55 AM 48.2 °F - 28.4 °F 46% 30.04 in 10.0 mi West 13.8 mph 21.9 mph N/A   Clear
11:15 AM 50.0 °F - 28.4 °F 43% 30.03 in 10.0 mi West 13.8 mph 19.6 mph N/A   Clear
11:35 AM 50.0 °F - 28.4 °F 43% 30.03 in 10.0 mi West 15.0 mph 21.9 mph N/A   Clear
11:55 AM 51.8 °F - 28.4 °F 41% 30.03 in 10.0 mi West 11.5 mph 18.4 mph N/A   Clear
12:15 PM 51.8 °F - 30.2 °F 44% 30.02 in 10.0 mi WSW 16.1 mph 20.7 mph N/A   Clear
12:35 PM 53.6 °F - 28.4 °F 38% 30.02 in 10.0 mi WSW 12.7 mph 20.7 mph N/A   Clear
12:55 PM 53.6 °F - 28.4 °F 38% 30.01 in 10.0 mi West 13.8 mph 21.9 mph N/A   Clear
1:15 PM 53.6 °F - 28.4 °F 38% 30.02 in 10.0 mi West 12.7 mph 20.7 mph N/A   Clear
1:35 PM 53.6 °F - 28.4 °F 38% 30.01 in 10.0 mi West 16.1 mph 21.9 mph N/A   Clear
1:55 PM 55.4 °F - 26.6 °F 33% 30.01 in 10.0 mi WSW 17.3 mph 26.5 mph N/A   Clear
2:15 PM 55.4 °F - 26.6 °F 33% 30.01 in 10.0 mi WSW 13.8 mph 21.9 mph N/A   Clear
2:35 PM 55.4 °F - 26.6 °F 33% 30.01 in 10.0 mi West 16.1 mph 23.0 mph N/A   Clear
3:15 PM 55.4 °F - 24.8 °F 31% 30.01 in 10.0 mi West 12.7 mph 21.9 mph N/A   Clear
3:35 PM 55.4 °F - 26.6 °F 33% 30.02 in 10.0 mi West 15.0 mph 19.6 mph N/A   Clear
3:55 PM 55.4 °F - 26.6 °F 33% 30.02 in 10.0 mi WSW 11.5 mph 21.9 mph N/A   Clear
4:15 PM 55.4 °F - 26.6 °F 33% 30.04 in 10.0 mi West 12.7 mph 20.7 mph N/A   Clear
4:35 PM 55.4 °F - 23.0 °F 29% 30.04 in 10.0 mi West 15.0 mph 23.0 mph N/A   Clear
4:55 PM 55.4 °F - 24.8 °F 31% 30.05 in 10.0 mi West 10.4 mph 19.6 mph N/A   Clear
5:15 PM 53.6 °F - 26.6 °F 35% 30.06 in 10.0 mi WSW 11.5 mph 17.3 mph N/A   Clear
5:35 PM 51.8 °F - 26.6 °F 38% 30.06 in 10.0 mi West 6.9 mph - N/A   Clear